Location: Sobotiste
(48.7170°N, 17.4000°E)
Time: 18:42:03
(UTC+01:00)

NANOSAT C BR1 - Visible Passes

Search period start: 07 March 2026 00:00
Search period end: 17 March 2026 00:00
Orbit: 479 x 485 km, 98.1° (Epoch: 7 March)

Date Brightness Start Highest point End Pass type
(mag) Time Alt. Az. Time Alt. Az. Time Alt. Az.
7 Mar ? 19:19:21 10° SW 19:21:28 15° W 19:23:36 10° NW visible
8 Mar ? 18:52:54 10° SSW 18:56:01 28° W 18:59:10 10° NW visible
9 Mar ? 18:27:08 10° S 18:30:38 56° WSW 18:34:10 10° NNW visible
11 Mar ? 19:10:51 10° SW 19:13:27 19° W 19:16:03 10° NW visible
12 Mar ? 18:44:34 10° SSW 18:47:53 35° W 18:51:13 10° NNW visible
13 Mar ? 18:18:49 10° S 18:22:23 74° WSW 18:25:58 10° NNW visible
14 Mar ? 19:28:54 10° WSW 19:30:33 13° W 19:32:14 10° WNW visible
15 Mar ? 19:01:53 10° SSW 19:04:49 24° W 19:07:47 10° NW visible
16 Mar ? 18:35:42 10° S 18:39:09 47° W 18:42:38 10° NNW visible
